CW1492 Weather Reports


Display with metric or nautical units.
time (UTC)temp
F
wind
direction
speed
MPH
gust
MPH
rain 1hr
in
rain 24hr
in
rain mn
in
humidity
%
barometer
mb
20260505033340 57 86 2.0 11.0 0.00 0.00 0.00 47 1010.2
20260505033312 57 160 0.0 5.0 0.00 0.00 0.00 65 1008.6
20260505031843 57 87 3.0 9.0 0.00 0.00 0.00 46 1010.0
20260505031815 58 298 1.0 3.0 0.00 0.00 0.00 64 1008.5
20260505030405 58 141 0.0 9.0 0.00 0.00 0.00 64 1008.5
20260505030329 58 127 3.0 10.0 0.00 0.00 0.00 45 1010.0
20260505024849 59 101 3.0 9.0 0.00 0.00 0.00 44 1010.1
20260505024825 59 195 3.0 9.0 0.00 0.00 0.00 63 1008.6
20260505023403 59 134 2.0 11.0 0.00 0.00 0.00 43 1010.0
20260505023318 60 206 2.0 10.0 0.00 0.00 0.00 61 1008.4
20260505021925 60 325 1.0 5.0 0.00 0.00 0.00 60 1008.4
20260505021907 60 146 2.0 9.0 0.00 0.00 0.00 41 1010.0
20260505021843 60 325 1.0 5.0 0.00 0.00 0.00 60 1008.4
20260505021824 60 146 2.0 9.0 0.00 0.00 0.00 41 1010.0
20260505020352 60 110 3.0 12.0 0.00 0.00 0.00 40 1009.7
20260505020344 61 181 3.0 8.0 0.00 0.00 0.00 59 1008.3
20260505014920 61 112 5.0 14.0 0.00 0.00 0.00 38 1009.4
20260505014847 61 103 2.0 7.0 0.00 0.00 0.00 56 1008.1
20260505013347 62 158 2.0 6.0 0.00 0.00 0.00 54 1008.3
20260505013345 62 128 5.0 9.0 0.00 0.00 0.00 36 1009.4
20260505011849 63 146 5.0 11.0 0.00 0.00 0.00 30 1009.3
20260505011825 62 119 2.0 9.0 0.00 0.00 0.00 52 1008.1
20260505010409 61 317 0.0 2.0 0.00 0.00 0.00 51 1007.7
20260505010333 64 140 2.0 5.0 0.00 0.00 0.00 29 1009.2
20260505004928 64 113 3.0 7.0 0.00 0.00 0.00 29 1009.0
20260505004833 61 349 0.0 2.0 0.00 0.00 0.00 52 1007.5
20260505003359 63 244 0.0 1.0 0.00 0.00 0.00 50 1007.4
20260505003333 64 106 4.0 10.0 0.00 0.00 0.00 31 1008.8
20260505001859 64 242 0.0 2.0 0.00 0.00 0.00 47 1007.1
20260505001836 64 106 3.0 6.0 0.00 0.00 0.00 29 1008.7
20260505001817 64 242 0.0 2.0 0.00 0.00 0.00 47 1007.1
20260505000343 65 137 3.0 9.0 0.00 0.00 0.00 28 1008.5
20260505000317 65 117 0.0 2.0 0.00 0.00 0.00 46 1006.9
20260504234935 66 103 3.0 10.0 0.00 0.00 0.00 28 1008.3
20260504234836 66 119 0.0 4.0 0.00 0.00 0.00 45 1006.7
20260504233415 67 141 3.0 5.0 0.00 0.00 0.00 26 1008.0
20260504233318 67 142 0.0 2.0 0.00 0.00 0.00 42 1006.6
20260504231845 68 144 1.0 7.0 0.00 0.00 0.00 26 1007.8
20260504231841 68 171 2.0 4.0 0.00 0.00 0.00 42 1006.3
20260504230440 68 118 1.0 4.0 0.00 0.00 0.00 25 1007.8
20260504230321 68 188 0.0 3.0 0.00 0.00 0.00 41 1006.2
20260504224836 69 291 6.0 10.0 0.00 0.00 0.00 24 1007.8
20260504224823 68 203 2.0 7.0 0.00 0.00 0.00 39 1006.0
20260504223428 70 213 6.0 11.0 0.00 0.00 0.00 24 1007.6
20260504223409 68 209 1.0 13.0 0.00 0.00 0.00 40 1005.9
20260504221844 70 262 5.0 11.0 0.00 0.00 0.00 23 1007.6
20260504221829 69 319 2.0 9.0 0.00 0.00 0.00 38 1005.8
20260504220353 71 112 3.0 12.0 0.00 0.00 0.00 23 1007.4
20260504220327 69 130 2.0 12.0 0.00 0.00 0.00 39 1005.9
20260504214945 71 237 2.0 8.0 0.00 0.00 0.00 24 1007.5
20260504214829 70 284 4.0 7.0 0.00 0.00 0.00 37 1005.9
20260504213349 70 257 1.0 9.0 0.00 0.00 0.00 38 1006.0
20260504211849 70 295 4.0 12.0 0.00 0.00 0.00 38 1006.1
20260504211835 70 10 2.0 9.0 0.00 0.00 0.00 25 1007.8
20260504210437 69 319 4.0 12.0 0.00 0.00 0.00 37 1006.2
20260504210345 71 190 3.0 14.0 0.00 0.00 0.00 24 1007.8
20260504210334 69 319 4.0 12.0 0.00 0.00 0.00 37 1006.2
20260504204852 70 182 6.0 16.0 0.00 0.00 0.00 24 1007.8
20260504204835 69 250 5.0 16.0 0.00 0.00 0.00 37 1006.2
20260504203355 69 296 4.0 9.0 0.00 0.00 0.00 38 1006.3
20260504201859 71 155 6.0 10.0 0.00 0.00 0.00 22 1007.9
20260504201838 69 166 5.0 9.0 0.00 0.00 0.00 39 1006.2
20260504200336 69 250 3.0 7.0 0.00 0.00 0.00 38 1006.3
20260504200334 70 157 5.0 12.0 0.00 0.00 0.00 22 1008.0
20260504194929 70 251 4.0 13.0 0.00 0.00 0.00 25 1007.9
20260504194838 69 198 2.0 10.0 0.00 0.00 0.00 40 1006.2
20260504193356 69 281 4.0 11.0 0.00 0.00 0.00 39 1006.3
20260504193331 70 95 5.0 12.0 0.00 0.00 0.00 25 1007.9
20260504191833 69 256 5.0 16.0 0.00 0.00 0.00 23 1007.9
20260504190400 69 234 3.0 13.0 0.00 0.00 0.00 38 1006.6
20260504190337 69 156 4.0 10.0 0.00 0.00 0.00 26 1008.0
20260504184900 69 261 7.0 13.0 0.00 0.00 0.00 36 1006.6
20260504184839 69 287 6.0 14.0 0.00 0.00 0.00 25 1008.2
20260504183414 66 2 4.0 15.0 0.00 0.00 0.00 25 1008.2
20260504183314 68 236 3.0 17.0 0.00 0.00 0.00 38 1006.6
20260504181853 66 244 6.0 12.0 0.00 0.00 0.00 25 1008.2
20260504181833 68 272 5.0 12.0 0.00 0.00 0.00 38 1006.6
20260504180358 66 257 3.0 16.0 0.00 0.00 0.00 26 1008.3
20260504180352 68 296 8.0 15.0 0.00 0.00 0.00 37 1006.7
20260504174840 66 206 8.0 19.0 0.00 0.00 0.00 25 1008.7
20260504174831 67 264 8.0 16.0 0.00 0.00 0.00 38 1006.9
20260504173348 66 224 9.0 16.0 0.00 0.00 0.00 24 1008.4
20260504173325 66 95 3.0 11.0 0.00 0.00 0.00 40 1006.9
20260504171915 64 180 4.0 13.0 0.00 0.00 0.00 26 1008.6
20260504171848 67 239 2.0 12.0 0.00 0.00 0.00 39 1006.9
20260504170402 65 278 5.0 10.0 0.00 0.00 0.00 28 1008.7
20260504170347 67 198 3.0 12.0 0.00 0.00 0.00 39 1007.1
20260504160329 65 195 7.0 16.0 0.00 0.00 0.00 24 1009.1
20260504160316 65 209 5.0 12.0 0.00 0.00 0.00 39 1007.7
20260504150411 63 212 7.0 20.0 0.00 0.00 0.00 26 1009.7
20260504150332 64 223 3.0 15.0 0.00 0.00 0.00 41 1008.0
20260504140342 60 199 5.0 14.0 0.00 0.00 0.00 30 1009.8
20260504140317 59 173 5.0 12.0 0.00 0.00 0.00 50 1008.1
20260504130418 54 105 2.0 11.0 0.00 0.00 0.00 40 1010.5
20260504130408 55 164 4.0 11.0 0.00 0.00 0.00 54 1008.9
20260504130336 54 105 2.0 11.0 0.00 0.00 0.00 40 1010.5
20260504110410 45 110 4.0 8.0 0.00 0.00 0.00 49 1011.0
20260504110334 47 156 3.0 6.0 0.00 0.00 0.00 68 1009.6
20260504100337 42 266 0.0 1.0 0.00 0.00 0.00 78 1009.3
20260504100327 44 95 2.0 3.0 0.00 0.00 0.00 51 1010.7
20260504081841 45 207 0.0 1.0 0.00 0.00 0.00 71 1009.4
20260504081832 46 97 3.0 8.0 0.00 0.00 0.00 47 1010.8
20260504080353 46 120 2.0 5.0 0.00 0.00 0.00 48 1010.7
20260504080345 46 156 6.0 8.0 0.00 0.00 0.00 69 1009.2
20260504070401 45 212 0.0 1.0 0.00 0.00 0.00 69 1009.4
20260504070359 46 158 1.0 6.0 0.00 0.00 0.00 46 1010.6
20260504050426 41 92 0.0 0.0 0.00 0.00 0.00 55 1011.2
20260504050328 42 294 0.0 2.0 0.00 0.00 0.00 71 1009.5
20260504044829 41 280 0.0 1.0 0.00 0.00 0.00 69 1009.5
20260504044826 41 92 0.0 0.0 0.00 0.00 0.00 53 1011.1
20260504043336 40 92 1.0 3.0 0.00 0.00 0.00 51 1011.2
20260504043329 41 280 0.0 2.0 0.00 0.00 0.00 72 1009.4
20260504041931 40 92 0.0 3.0 0.00 0.00 0.00 54 1011.2
20260504041907 39 166 1.0 3.0 0.00 0.00 0.00 70 1009.5
20260504040343 41 114 2.0 4.0 0.00 0.00 0.00 56 1010.8
20260504040327 38 306 0.0 1.0 0.00 0.00 0.00 77 1009.4
20260504034845 42 25 2.0 3.0 0.00 0.00 0.00 54 1010.9
20260504034813 36 306 1.0 2.0 0.00 0.00 0.00 78 1009.5